Find Starlink 11473

NORAD ID: 62060 Int'l Des: 2024-217 Owner: SPXS Country: US Constellation: starlink operational
LEOCIRCULAR

現在のビュー

3D地球を読み込み中...

About Starlink 11473

Starlink 11473 (NORAD 62060) is a starlink constellation satellite (v2 mini d2c) launched Nov 24, 2024 by SPXS of US. It operates in LEO, CIRCULAR orbit with a mass of 960.00 kg.

Starlink 11473について

説明を読み込み中...

次回通過

Passes for default location (London). Set your location on the main map for personalized predictions.

高度履歴

Loading altitude history...

軌道要素

1 62060U 24217D 26169.81860633 .00138830 00000-0 11301-2 0 9990
2 62060 53.1570 292.9715 0000866 75.5200 284.5914 15.69743816 91059
Epoch: Jun 18, 2026 • Age: 13 hours

現在のステータス

高度 359.6 km
速度 7.70 km/s
衛星直下点 20.78°N, 58.49°E
打ち上げ日 Nov 24, 2024
運用期間 1.5 years
タイプ internet

技術仕様

分類 Payload
質量 960.00 kg
乾燥質量 910.00 kg
総質量 960.00 kg
長さ 0.30 m
直径 4.10 m
スパン 29.00 m
形状 Box + pan
製造者 SPXS
バスタイプ Starlink V2MD
フェーズステータス In Orbit
所有者/国 SPXS/US

Most Searched